Location: *
(58.7167°N, 26.1833°E)
Time: 02:43:15
(UTC+00:00)

Cosmos 2082 Rocket - Pass Details

Date: 25 August 2019
Orbit: 832 x 855 km, 71.0° (Epoch: 16 September)

Event Time Altitude Azimuth Distance (km) Brightness Sun altitude
Rises 23:00:34 0° 277° (W) 3,406 5.3 -20.1°
Reaches altitude 10° 23:03:26 10° 291° (WNW) 2,477 4.7 -20.1°
Maximum altitude 23:08:09 26° 347° (NNW) 1,622 4.3 -19.9°
Drops below altitude 10° 23:12:54 10° 43° (NE) 2,492 5.5 -19.8°
Sets 23:15:48 0° 56° (NE) 3,432 6.1 -19.7°
